Terug naar catalogus

CZ-4B DEB

ActiefSSO
NORAD 37581·DEBRIS·🇨🇳 China

Gelanceerd May 10, 1999 vanaf Taiyuan Satellite Launch Center

Loading…

Volgende Passages (komende 24 uur)

TLE

VersSource: Space-Track

Epoch: Sep 12, 2026, 02:00 UTC

1 37581U 99025EKE 26255.08394997  .00000563  00000-0  23256-3 0  9993
2 37581  98.6954 301.9193 0103895 323.1007  65.7835 14.27747395255897

Volg CZ-4B DEB in realtime met AllMySat

Download on the App Store